Regional Weather Roundup
Issued by NWS

Home | Current Version | Previous Version | Text Only | Print | Product List | Glossary On
Versions: 1 2 3 4 5 6 7 8 9 10 11 12 13 14 15 16 17 18 19 20 21 22 23 24 25 26 27 28 29 30 31 32 33 34 35 36 37 38 39 40 41 42 43 44 45 46 47 48 49 50
000
ASUS46 KLOX 072213
RWRCA

SOUTHERN CALIFORNIA WEATHER ROUNDUP
NATIONAL WEATHER SERVICE OXNARD CALIFORNIA
300 PM PDT TUE JUL 07 2015

NOTE: "FAIR" INDICATES FEW OR NO CLOUDS BELOW 12,000 FEET WITH NO
SIGNIFICANT WEATHER AND/OR OBSTRUCTIONS TO VISIBILITY.

  -  STATIONS PRECEEDED BY AN ASTERISK (*) ARE NOT NWS OR FAA
     STATIONS AND ARE NOT SUBJECT TO NWS AND FAA QUALITY CONTROL.

CAZ041-042-087-072300-
LA AND ORANGE COUNTY COASTAL AREAS


CITY           SKY/WX    TMP DP  RH WIND       PRES   REMARKS
L.A. DOWNTOWN  SUNNY     74  61  63 VRB3      29.91F
L.A. AIRPORT   MOSUNNY   70  62  76 W10       29.93F
LONG BEACH     SUNNY     74  60  61 SW10      29.92F

CITY           SKY/WX    TMP DP  RH WIND       PRES   REMARKS
AVALON           N/A     70 N/A N/A NE5         N/A
FULLERTON      SUNNY     78  61  55 S9        29.91F
*GETTY CENTER    N/A     72  59  64 S12G17      N/A
HAWTHORNE      MOSUNNY   73  61  65 SW12      29.93F
*LOS ALAMITOS  MOSUNNY   74  62  66 SW10      29.92F
*REDONDO BEACH   N/A     75  62  64 SW1       29.93F
SANTA ANA      PTSUNNY   72  61  68 SW10      29.92F
STA MONICA APT MOSUNNY   68  60  75 W8        29.93F
*UCLA            N/A     70  59  68 SW8       29.90F

$$

CAZ547-548-048-072300-
LA COUNTY VALLEYS AND INLAND EMPIRE


CITY           SKY/WX    TMP DP  RH WIND       PRES   REMARKS
BURBANK        SUNNY     78  60  53 S10       29.91F
VAN NUYS       SUNNY     82  60  47 S7        29.90F

CITY           SKY/WX    TMP DP  RH WIND       PRES   REMARKS
CORONA AIRPORT CLEAR     81  62  52 W14       29.89F
CHINO          MOSUNNY   85  59  41 W10       29.90F
MARCH AFB      SUNNY     85  58  40 W10       29.90F
*NORTHRIDGE      N/A     82  57  42 E3G9        N/A
ONTARIO        MOSUNNY   84  57  39 W9G16     29.90F
*PASADENA        N/A     82  64  54 E3          N/A
POMONA         SUNNY     79  59  50 W12G18      N/A
RIVERSIDE      SUNNY     85  60  42 W10       29.89F
SAN BERNARDINO MOSUNNY   86  48  26 W9        29.89F HAZE
*SAN GABRIEL     N/A     78  62  57 SW3       29.97F
*WHITEMAN AP   NOT AVBL

$$

CAZ054-055-072300-
LA AND SAN BERNARDINO COUNTY MOUNTAINS


CITY           SKY/WX    TMP DP  RH WIND       PRES   REMARKS
*BIG BEAR AIRP CLEAR     73  37  27 SW6G17    30.20F
SANDBERG       SUNNY     85  33  15 S14G20    30.07F

$$

CAZ028-029-059-060-099-072300-
ANTELOPE VALLEY AND SURROUNDING AREAS


CITY           SKY/WX    TMP DP  RH WIND       PRES   REMARKS
LANCASTER      SUNNY     95  33  11 SW18      29.89F HX  90
PALMDALE       SUNNY     92  39  15 SW15G24   29.90F

CITY           SKY/WX    TMP DP  RH WIND       PRES   REMARKS
29 PALMS       MOSUNNY  102  43  13 SW20G26   29.88F HX  97
BARSTOW/DAGGET MOSUNNY  102  42  13 NW7       29.81F HX  97
BISHOP         PTSUNNY   93  33  12 S15G26    29.90F
CHINA LAKE     MOSUNNY  101  28   7 S17G29    29.83F HX  94
EDWARDS AFB    MOSUNNY   96  27   8 SW13      29.85F HX  90
MOJAVE         FAIR      93  28  10 S7G21     29.91F
NEEDLES        MOSUNNY  110  46  11 S13G22    29.73F HX 105
VICTORVILLE    SUNNY     97  19   6 S24G32    29.90F HX  90

$$

CAZ039-040-072300-
VENTURA AND SANTA BARBARA COUNTY COAST


CITY           SKY/WX    TMP DP  RH WIND       PRES   REMARKS
CAMARILLO      MOSUNNY   73  58  59 SW13      29.93F
OXNARD AIRPORT CLOUDY    68  59  73 SW14G20   29.93F
*POINT MUGU    PTSUNNY   72  60  66 SW12      29.94F
SBA APT/GOLETA MOSUNNY   70  60  70 S8        29.92F
*SANTA BARBARA   N/A     76  60  57 W3        30.00F
*VENTURA         N/A     74  60  59 SW6       29.53F

$$

CAZ044-045-072300-
VENTURA COUNTY VALLEYS


CITY           SKY/WX    TMP DP  RH WIND       PRES   REMARKS
*SIMI VALLEY     N/A     78  62  57 W12       29.86F
*OJAI            N/A     81  61  49 CALM      29.83F
*FILLMORE        N/A     82  63  52 CALM      29.80F

$$

CAZ053-072300-
VENTURA COUNTY MOUNTAINS


CITY           SKY/WX    TMP DP  RH WIND       PRES   REMARKS

$$

CAZ034-035-036-072300-
CENTRAL COAST AND SANTA YNEZ VALLEY


CITY           SKY/WX    TMP DP  RH WIND       PRES   REMARKS
SAN LUIS OBISP SUNNY     75  56  51 NW29G35   29.94F
SANTA MARIA    SUNNY     75  58  55 NW22G31   29.95F

CITY           SKY/WX    TMP DP  RH WIND       PRES   REMARKS
*CAL POLY SLO    N/A     73  59  60 W12         N/A
*LOMPOC        SUNNY     75  57  53 NW15G24   29.98F
*PISMO BEACH     N/A     65  60  83 W20       29.94F
*SANTA YNEZ    FAIR      81  54  39 W18       29.93F

$$

CAZ037-038-051-072300-
SAN LUIS OBISPO COUNTY INTERIOR AND CUYAMA VALLEY


CITY           SKY/WX    TMP DP  RH WIND       PRES   REMARKS
*CUYAMA          N/A     86  49  27 W2        29.80F
PASO ROBLES    SUNNY     88  56  33 SW16G23   29.89F

$$

CAZ032-033-061-072300-
SOUTHERN DESERTS


CITY           SKY/WX    TMP DP  RH WIND       PRES   REMARKS
BLYTHE         SUNNY    107  51  15 S15       29.71F HX 104
IMPERIAL       MOSUNNY  107  46  13 SW5       29.69F HX 103
PALM SPRINGS   MOSUNNY  105  51  16 NW15G25   29.75F HX 102
THERMAL        SUNNY    106  53  17 SE12      29.67F HX 104

$$

ELSEWHERE ACROSS THE WESTERN UNITED STATES AND MEXICO


CITY           SKY/WX    TMP DP  RH WIND       PRES   REMARKS
DENVER, CO     CLOUDY    65  52  62 S20G26    30.14R HAZE
GRAND CANYON,  MOSUNNY   78  43  28 NW13G23   30.18F
HONOLULU, HI   MOSUNNY   88  66  48 NE17G23   30.00F HX  90
KAHULUI, MAUI  PTSUNNY   81  72  74 NE18      30.01F
LAKE TAHOE, CA CLOUDY    60  52  74 CALM      30.18F
LAS VEGAS, NV  PTSUNNY   99  48  17 VRB3      29.80F THUNDER HX  95
MAMMOTH LAKES, LGT RAIN  59  50  72 SW14      30.21S
MEXICO CITY, M CLOUDY    63  48  59 E17       30.31
PHOENIX, AZ    MOSUNNY  105  53  17 N12G17    29.77F HX 103
PORTLAND, OR   MOSUNNY   82  55  39 W7        29.91F
RENO, NV       TSTM      65  32  29 SW24G37   30.06R
SALT LAKE CITY CLOUDY    83  52  34 W8        29.97F
SAN DIEGO, CA  PTSUNNY   70  57  64 W12       29.94F
SAN FRANCISCO, PTSUNNY   73  56  54 W17       29.97F
SAN JOSE, CA   MOSUNNY   76  59  55 W16       29.94F
SEATTLE, WA    CLOUDY    77  54  44 W7        29.97F
TIJUANA, MEX   SUNNY     73  57  56 W14       29.95F

$$

STATION/POSITION TIME  TEMP    WIND        PRES    VSBY  WAVE
                       AIR SEA DIR/SP/G                  HT/PER
                 (UTC) (F)     (DEG/KT/KT) (MB)    (MI)  (FT/S)
POINT ARGUELLO B NOT AVBL
WEST SANTA BARBA 2150   61 61  300/ 12/ 16 1013.7F         4/13
POINT CONCEPTION NOT AVBL
EAST SANTA BARBA 2100   64 65  220/  6/  6 1014.5F
SANTA MONICA BAY 2150   64 67  240/  8/ 10 1013.9F         3/13



USA.gov is the U.S. government's official web portal to all federal, state and local government web resources and services.